Location: Albany
(35.0000°S, 118.0000°E)
Time: 19:43:41
(UTC-04:00)

Daily predictions for brighter satellites

Satellite Brightness Start Highest point End
(mag) Time Altitude Azimuth Time Altitude Azimuth Time Altitude Azimuth
ATLAS 5 CENTAUR R/B 4.1 13:52:07 26° E 13:52:07 26° E 13:56:29 10° ESE
Milstar 3 Cent rocket 4.0 14:09:08 56° NNE 14:09:26 56° NNE 14:27:10 10° E
Cosmos 841 Rocket 4.4 14:29:58 47° SE 14:29:58 47° SE 14:33:50 10° SSE
USA 234 4.3 14:25:22 10° SSE 14:31:01 32° SSW 14:31:37 31° SW
SJ 16-02 4.4 14:45:53 10° SSE 14:48:24 15° ESE 14:50:54 10° E
SL-08 R/B 3.8 14:44:23 10° SSE 14:48:43 62° SE 14:48:43 62° SE
SL-16 R/B 3.1 14:46:01 10° SSE 14:52:04 51° E 14:54:21 35° NNE
Cosmos 1745 Rocket 4.2 14:57:54 43° NNE 14:59:54 67° E 15:06:02 10° SSE
ADEOS II 2.0 15:00:30 82° SSW 15:00:30 82° SSW 15:05:37 10° SSW
Cosmos 540 Rocket 3.6 15:02:10 67° NE 15:02:28 69° ENE 15:07:39 10° SSE
Cosmos 1238 Rocket 4.3 14:57:36 10° SSW 15:03:21 50° WSW 15:03:21 50° WSW
Cosmos 1340 Rocket 4.0 15:07:12 10° S 15:11:01 41° ESE 15:12:25 30° NE
Cosmos 2082 Rocket 4.1 15:11:48 10° NNE 15:16:21 25° ENE 15:20:54 10° SE
Meteor 1-21 4.4 15:15:13 10° SSW 15:20:13 50° WSW 15:20:13 50° WSW
Nadezhda 1 Rocket 4.2 15:14:24 10° S 15:20:45 72° E 15:27:06 10° NNE
PSLV R/B 4.3 15:25:00 49° SSW 15:25:00 49° SSW 15:28:06 10° SSW
PAYLOAD B 4.2 15:20:40 10° NNE 15:26:14 84° ESE 15:31:55 10° SSW
Cosmos 292 Rocket 4.2 15:24:48 34° NNE 15:26:37 57° ENE 15:31:20 10° SSE
SL-27 R/B 3.6 15:29:08 35° S 15:29:08 35° S 15:31:17 10° S
MOZ.5/SAFIR/RUBIN 5/SL-8 4.2 15:26:30 10° SSE 15:31:18 63° ENE 15:34:06 24° N
PSLV R/B 3.5 15:34:07 62° WNW 15:34:23 63° W 15:38:50 10° SSW
ATLAS 5 CENTAUR R/B 2.8 15:33:41 40° WNW 15:35:42 53° SW 15:41:53 10° SSE
Atlas Centaur 2 3.9 15:33:25 24° NNW 15:36:45 32° NNE 15:42:58 10° E
Cosmos 1707 3.9 15:33:36 10° S 15:37:23 43° E 15:41:07 10° NNE
Cosmos 389 Rocket 4.0 15:39:08 27° SW 15:39:08 27° SW 15:41:20 10° S
CZ-4B R/B 3.3 15:39:50 44° WSW 15:39:50 44° WSW 15:43:03 10° SSW
Cosmos 1271 Rocket 4.0 15:40:38 28° SW 15:40:38 28° SW 15:43:03 10° SSW
DELTA 2 R/B (1) 3.7 15:38:46 41° NW 15:40:38 64° NNE 15:46:12 10° ESE
CZ-4B DEB 4.1 15:35:09 10° N 15:40:42 77° WNW 15:46:22 10° SSW
Lacrosse 4 Rocket 1.5 15:40:55 52° WSW 15:41:04 53° WSW 15:45:08 10° SSE
COSMOS 2406 4.1 15:40:50 29° WSW 15:41:32 30° WSW 15:46:32 10° S
Haruka 3.4 15:40:35 36° WNW 15:42:12 46° NNW 15:45:40 10° NE
Okean O Rocket 1.6 15:41:48 31° N 15:43:52 64° W 15:48:22 10° SSW
UNK 4.2 15:41:16 10° S 15:45:38 41° WSW 15:46:12 39° W
Lacrosse 5 rocket 2.3 15:44:34 26° NNE 15:45:53 35° ENE 15:49:23 10° ESE
NOSS 2-3 (C) 4.0 15:43:40 10° SSW 15:49:53 88° WNW 15:54:53 10° NNE
Cosmos 1833 Rocket 3.4 15:44:47 10° N 15:50:08 52° ENE 15:55:38 10° SSE
Cosmos 2228 3.5 15:47:02 11° N 15:51:13 62° E 15:55:38 10° SSE
Okean-O 4.4 15:48:37 10° NE 15:52:39 34° ESE 15:56:42 10° S
GPS 2-05 Rocket1 2.5 15:52:33 67° W 15:52:57 89° NNE 15:56:10 10° E
Meteor PRIRODA 3.6 15:52:06 10° NNE 15:55:52 88° WNW 15:59:40 10° SSW
Genesis I 3.9 15:54:19 22° N 15:56:40 51° ENE 16:00:30 10° SE
Cosmos 1606 Rocket 3.7 15:55:33 31° NNW 15:57:30 57° W 16:01:58 10° S
Meteor 1-31 Rocket 2.7 15:56:08 10° NNE 15:59:59 88° ESE 16:03:57 10° S
CZ-4B R/B 3.3 15:55:43 10° N 16:01:14 55° W 16:06:52 10° SSW
Cosmos 1709 Rocket 3.9 15:55:35 10° N 16:01:43 82° W 16:07:59 10° S
SEDSat Delta rocket 4.1 15:58:09 26° W 16:02:07 63° N 16:08:35 10° ENE
BREEZE-M DEB (TANK) 3.4 16:00:26 10° SW 16:05:42 51° SE 16:08:06 10° ENE
Cosmos 1378 3.0 16:04:10 10° S 16:07:59 75° W 16:11:45 10° N
Meteor 2-5 Rocket 3.9 16:03:26 10° S 16:09:24 84° E 16:15:22 10° N
CZ-4B R/B 4.0 16:08:27 10° N 16:12:53 67° W 16:17:12 10° SSW
Cosmos 1953 Rocket 3.7 16:13:05 10° SSW 16:17:31 54° W 16:21:50 10° N
Abrixas rocket 3.2 16:16:35 17° NNW 16:18:41 39° NE 16:21:45 10° ESE
Cosmos 1538 Rocket 4.2 16:14:02 10° N 16:19:20 78° ENE 16:24:46 10° SSE
Cosmos 1825 Rocket 4.2 16:16:25 10° SSW 16:20:21 33° W 16:24:16 10° NNW
Feng Yun 1-1 Rocket 4.4 16:16:10 10° NNE 16:22:05 89° WNW 16:28:07 10° SSW
USA 161 2.8 16:20:16 10° SSE 16:22:36 35° E 16:25:04 10° N
SJ 16-02 1.7 16:22:57 10° SSW 16:27:13 43° WNW 16:31:26 10° N
OAO 3 Rocket 4.0 16:28:34 16° W 16:31:37 32° NNW 16:35:45 10° NE
USA 102 3.5 16:30:41 10° SSE 16:34:27 89° WSW 16:37:17 10° NNW
SL-16 R/B 3.8 16:30:33 10° SSW 16:35:14 23° WSW 16:39:27 12° WNW
Tiangong 1 3.2 16:34:15 10° SW 16:36:08 17° S 16:38:02 10° SE
Cosmos 2181 Rocket 4.1 16:32:02 10° SSW 16:38:29 65° W 16:44:48 10° N
Cosmos 1805 3.5 16:36:54 10° N 16:40:51 78° E 16:44:51 10° S
Cosmos 1766 3.5 16:38:00 10° NNW 16:41:57 54° W 16:45:57 10° S
Cosmos 1818 3.5 16:46:04 10° SSW 16:51:28 72° WNW 16:56:50 10° NNE
Cosmos 1867 4.1 16:46:38 10° NW 16:51:46 43° SW 16:56:56 10° SSE
Cosmos 2058 Rocket 4.3 16:49:44 10° NW 16:53:16 23° WSW 16:56:49 10° SSW
ATLAS 2AS CENTAUR R/B 2.7 16:49:16 10° SW 16:55:27 56° WNW 17:02:10 10° NNE
Cosmos 1697 Rocket 2.8 16:49:58 10° SSW 16:55:41 86° ESE 17:01:20 10° NNE
IDEFIX/ARIANE 42P 2.6 16:52:09 10° NNE 16:57:22 88° WNW 17:02:39 10° SSW
Cosmos 2082 Rocket 2.8 16:54:56 10° NW 17:00:10 38° WSW 17:05:25 10° S
In-Cosmos 22 4.1 16:55:12 10° SSW 17:00:31 64° W 17:05:50 10° N
